Regional Weather Roundup
Issued by NWS

Home | Current Version | Previous Version | Text Only | Print | Product List | Glossary On
Versions: 1 2 3 4 5 6 7 8 9 10 11 12 13 14 15 16 17 18 19 20 21 22 23 24 25 26 27 28
000
ASUS44 KLIX 222313
RWRLA
LOUISIANA WEATHER ROUNDUP
NATIONAL WEATHER SERVICE NEW ORLEANS LA
600 PM CDT THU JUN 22 2017

NOTE: "FAIR" INDICATES FEW OR NO CLOUDS BELOW 12,000 FEET WITH NO
      SIGNIFICANT WEATHER AND/OR OBSTRUCTIONS TO VISIBILITY.
      SKY/WX - SKY CONDITION AND SIGNIFICANT WEATHER.
      TMP - AIR TEMPERATURE.    DP   - DEWPOINT TEMPERATURE.
      RH  - RELATIVE HUMIDITY.  PRES - PRESSURE.
      HX  - HEAT INDEX.         WCI  - WIND CHILL INDEX.

*  THESE STATIONS ARE NOT NWS OR FAA STATIONS AND ARE NOT UNDER
   NWS QUALITY CONTROL.

LAZ040-048-061>063-065-066-069-230000-
SOUTHEAST LOUISIANA

CITY           SKY/WX    TMP DP  RH WIND       PRES   REMARKS
N.O. INTL ARPT PTSUNNY   84  76  76 S18G24    29.81S
N.O. LAKEFRONT PTSUNNY   86  77  74 S25       29.82R HX  97
N.O. DOWNTOWN*   N/A     88  77  69 S10G22      N/A  HX 100
RESERVE*       FAIR      88  75  65 S20       29.80R HX  97
SLIDELL        CLOUDY    86  75  69 S17       29.81S HX  95
BATON ROUGE    PTSUNNY   85  74  69 S13       29.76R
BOOTHVILLE     CLOUDY    82  79  90 S18G25    29.87S
BELLE CHASSE   PTSUNNY   86  78  77 S17G32    29.82R HX  98
BOGALUSA*      FAIR      88  73  61 SW16G23   29.82R HX  96
GALLIANO*      CLOUDY    84  76  77 S16G26    29.83S
NEW ROADS*       N/A     82  73  72 SW14G20   29.76S
GONZALES*      FAIR      85  75  70 S12G20    29.78S
HAMMOND*       CLOUDY    88  72  58 S13       29.79R
HOUMA*         NOT AVBL
PORT FOURCHON* PTCLDY    84  79  84 S14G24    29.85R HAZE    HX  96

$$

LAZ041-044-053-054-230000-
SOUTHWEST LOUISIANA

CITY           SKY/WX    TMP DP  RH WIND       PRES   REMARKS
LAKE CHARLES   MOSUNNY   85  79  82 SW14G26   29.71R HX  98
LAFAYETTE      MOSUNNY   84  73  69 S16G25    29.76R
PATTERSON      CLOUDY    84  78  82 S14G24    29.80R HX  95
SALT POINT       N/A     86  78  77 VRB6      29.78R HX  98
NEW IBERIA     PTSUNNY   84  73  70 S16G25    29.78R
CHENAULT AIRPK PTSUNNY   84  75  74 S22G31    29.71R

$$

LAZ027-028-230000-
CENTRAL LOUISIANA

CITY           SKY/WX    TMP DP  RH WIND       PRES   REMARKS
FORT POLK      CLOUDY    78  76  91 S10       29.67R
ALEXANDRIA INT NOT AVBL
ALEXANDRIA     NOT AVBL

$$

LAZ001-002-230000-
NORTHWEST LOUISIANA

CITY           SKY/WX    TMP DP  RH WIND       PRES   REMARKS
SHREVEPORT     LGT RAIN  79  78  97 CALM      29.51S FOG
BARKSDALE AFB  LGT RAIN  79  79 100 CALM      29.51S
DTN SHREVEPORT HVY RAIN  80  77  90 NE5       29.53R FOG

$$

LAZ014-016-230000-
NORTHEAST LOUISIANA

CITY           SKY/WX    TMP DP  RH WIND       PRES   REMARKS
MONROE         CLOUDY    83  74  74 S15G28    29.61S
TALLULAH       PTSUNNY   83  76  79 S12G20    29.69S

$$





USA.gov is the U.S. government's official web portal to all federal, state and local government web resources and services.